This is the latest recevied weather packets stored in our database for station/object N5JXS. If no packets are shown the sender has not sent any weather packets the latest 10 day(s).
| Time | Temp. | Humidity | Pressure | Rain* | Wind** | Luminosity | Snow |
|---|---|---|---|---|---|---|---|
| 1787940881 | 30.56° C | 26% | 1029.5 hPa | 0 mm | - | 679 W/m² | - |
| 1787940579 | 30° C | 28% | 1029.3 hPa | 0 mm | - | 703 W/m² | - |
| 1787940273 | 29.44° C | 28% | 1029.6 hPa | 0 mm | - | 708 W/m² | - |
| 1787939972 | 29.44° C | 28% | 1029.3 hPa | 0 mm | - | 681 W/m² | - |
| 1787939672 | 29.44° C | 26% | 1030 hPa | 0 mm | - | 662 W/m² | - |
| 1787939367 | 28.89° C | 30% | 1029.6 hPa | 0 mm | - | 611 W/m² | - |
| 1787939062 | 28.89° C | 28% | 1029.7 hPa | 0 mm | - | 593 W/m² | - |
| 1787938761 | 28.89° C | 29% | 1029.8 hPa | 0 mm | - | 611 W/m² | - |
| 1787938457 | 28.89° C | 31% | 1030.1 hPa | 0 mm | - | 610 W/m² | - |
| 1787938152 | 27.78° C | 30% | 1029.8 hPa | 0 mm | - | 632 W/m² | - |
| 1787937847 | 27.78° C | 33% | 1030.1 hPa | 0 mm | - | 662 W/m² | - |
| 1787937543 | 27.78° C | 30% | 1029.8 hPa | 0 mm | - | 671 W/m² | - |
| 1787937239 | 27.78° C | 31% | 1030 hPa | 0 mm | - | 652 W/m² | - |
| 1787936934 | 27.78° C | 32% | 1030.1 hPa | 0 mm | - | 649 W/m² | - |
| 1787936633 | 27.78° C | 31% | 1030.1 hPa | 0 mm | - | 642 W/m² | - |
| 1787936332 | 27.78° C | 33% | 1030.1 hPa | 0 mm | - | 610 W/m² | - |
| 1787936028 | 27.78° C | 30% | 1030.1 hPa | 0 mm | - | 588 W/m² | - |
| 1787935724 | 27.78° C | 30% | 1030.3 hPa | 0 mm | - | 596 W/m² | - |
| 1787935420 | 27.22° C | 32% | 1030.2 hPa | 0 mm | - | 599 W/m² | - |
| 1787935116 | 27.22° C | 32% | 1030.1 hPa | 0 mm | - | 600 W/m² | - |
| 1787934811 | 26.67° C | 33% | 1030.2 hPa | 0 mm | - | 573 W/m² | - |
| 1787934510 | 26.67° C | 32% | 1030.5 hPa | 0 mm | - | 561 W/m² | - |
| 1787934205 | 26.67° C | 32% | 1030.1 hPa | 0 mm | - | 529 W/m² | - |
| 1787933904 | 26.11° C | 33% | 1030 hPa | 0 mm | - | 500 W/m² | - |
| 1787933603 | 25.56° C | 35% | 1030.2 hPa | 0 mm | - | 225 W/m² | - |
* Rain latest hour (hover to see other rain measurements)
** Current wind speed in m/s (hover to see current wind gust speed)